Weather History for KABQ - October, 2013

Change the Weather History Date:

Thursday, October 10, 2013

  Actual Average Record
Temperature  
Mean Temperature 59 °F 60 °F  
Max Temperature 71 °F 71 °F 86 °F (1979)
Min Temperature 46 °F 48 °F 31 °F (1982)
Degree Days  
Heating Degree Days 6 5  
Month to date heating degree days 50 41  
Since 1 July heating degree days 74 67  
Cooling Degree Days 0 0  
Month to date cooling degree days 1 7  
Year to date cooling degree days 1565 1319  
Growing Degree Days 8 (Base 50)    
Moisture  
Dew Point 35 °F    
Average Humidity 46    
Maximum Humidity 66    
Minimum Humidity 26    
Precipitation  
Precipitation 0.04 in 0.04 in 0.98 in (1985)
Month to date precipitation 0.04 0.39  
Year to date precipitation 7.90 7.75  
Snow  
Snow 0.00 in - - ()
Month to date snowfall 0.0  
Since 1 July snowfall 0.0  
Since 1 September snowfall 0.0  
Snow Depth 0.00 in    
Sea Level Pressure  
Sea Level Pressure 29.76 in    
Wind  
Wind Speed 17 mph (SW)    
Max Wind Speed 45 mph    
Max Gust Speed 60 mph    
Visibility 9 miles    
Events Rain , Thunderstorm    
T = Trace of Precipitation, MM = Missing Value Source: NWS Daily Summary

Daily Weather History Graph

Daily Weather History Graph

Search for Another Location

Airport or City:

Trip Planner

Search our weather history database for the weather conditions in past years. The results will help you decide how hot, cold, wet, or windy it might be!

Date:

Astronomy

Oct. 10, 2013 Rise Set
Actual Time 7:08 AM MDT 6:37 PM MDT
Civil Twilight 6:43 AM MDT 7:02 PM MDT
Nautical Twilight 6:13 AM MDT 7:32 PM MDT
Astronomical Twilight 5:44 AM MDT 8:01 PM MDT
Moon 12:54 PM MDT (10/10) 11:26 PM MDT (10/10)
Length of Visible Light 12h 19m
Length of Day
11h 29m
Waxing Crescent, 36% of the Moon is Illuminated
Oct 10
Waxing Crescent
Oct 11
First Quarter
Oct 18
Full
Oct 26
Last Quarter
Nov 3
New

Hourly Weather History & Observations

Time (MDT) Temp. Windchill Dew Point Humidity Pressure Visibility Wind Dir Wind Speed Gust Speed Precip Events Conditions
12:52 AM 60.1 °F - 35.1 °F 39% 29.74 in 10.0 mi SE 5.8 mph - N/A   Scattered Clouds
1:52 AM 63.0 °F - 34.0 °F 34% 29.71 in 10.0 mi South 9.2 mph - N/A   Scattered Clouds
2:52 AM 59.0 °F - 36.0 °F 42% 29.72 in 10.0 mi SSW 9.2 mph - N/A   Scattered Clouds
3:52 AM 57.9 °F - 36.0 °F 44% 29.71 in 10.0 mi South 9.2 mph - N/A   Scattered Clouds
4:52 AM 55.0 °F - 36.0 °F 49% 29.71 in 10.0 mi South 6.9 mph - N/A   Partly Cloudy
5:52 AM 52.0 °F - 35.1 °F 53% 29.72 in 10.0 mi SSE 5.8 mph - N/A   Clear
6:52 AM 57.0 °F - 37.0 °F 47% 29.71 in 10.0 mi South 9.2 mph - N/A   Clear
7:52 AM 59.0 °F - 39.0 °F 48% 29.71 in 10.0 mi South 16.1 mph - N/A   Scattered Clouds
8:52 AM 63.0 °F - 39.0 °F 41% 29.71 in 10.0 mi South 19.6 mph 31.1 mph N/A   Scattered Clouds
9:52 AM 66.0 °F - 37.9 °F 36% 29.69 in 10.0 mi South 31.1 mph 40.3 mph N/A   Scattered Clouds
10:52 AM 69.1 °F - 35.1 °F 29% 29.64 in 7.0 mi South 35.7 mph 50.6 mph N/A   Scattered Clouds
11:52 AM 70.0 °F - 33.1 °F 26% 29.62 in 6.0 mi South 39.1 mph 51.8 mph N/A   Widespread Dust
12:52 PM 61.0 °F - 43.0 °F 52% 29.66 in 7.0 mi South 29.9 mph 50.6 mph 0.00 in Rain Rain
1:01 PM 60.8 °F - 44.6 °F 55% 29.86 in 5.0 mi WSW 17.3 mph 40.3 mph 0.02 in Rain , Thunderstorm Light Thunderstorms and Rain
1:12 PM 55.4 °F - 44.6 °F 67% 29.88 in 8.0 mi WSW 29.9 mph 35.7 mph 0.02 in Rain , Thunderstorm Light Thunderstorms and Rain
1:22 PM 53.6 °F - 44.6 °F 72% 29.89 in 8.0 mi WSW 19.6 mph 35.7 mph 0.03 in Rain Light Rain
1:52 PM 54.0 °F - 43.0 °F 66% 29.71 in 8.0 mi SW 19.6 mph 29.9 mph 0.04 in Rain Light Rain
2:52 PM 59.0 °F - 43.0 °F 55% 29.70 in 10.0 mi South 26.5 mph 33.4 mph 0.00 in   Mostly Cloudy
3:52 PM 64.9 °F - 33.1 °F 31% 29.66 in 10.0 mi SSW 21.9 mph 31.1 mph N/A   Scattered Clouds
4:26 PM 59.0 °F - 35.6 °F 42% 29.87 in 10.0 mi WNW 18.4 mph 28.8 mph N/A   Mostly Cloudy
4:52 PM 59.0 °F - 36.0 °F 42% 29.74 in 10.0 mi WNW 17.3 mph - N/A   Mostly Cloudy
5:52 PM 57.9 °F - 30.9 °F 36% 29.78 in 10.0 mi West 23.0 mph 35.7 mph N/A   Scattered Clouds
6:52 PM 55.0 °F - 28.9 °F 37% 29.81 in 10.0 mi West 18.4 mph 28.8 mph N/A   Partly Cloudy
7:52 PM 52.0 °F - 28.0 °F 40% 29.84 in 10.0 mi WNW 19.6 mph - N/A   Partly Cloudy
8:52 PM 51.1 °F - 26.1 °F 38% 29.88 in 10.0 mi WNW 13.8 mph - N/A   Partly Cloudy
9:52 PM 48.9 °F - 28.9 °F 46% 29.88 in 10.0 mi WNW 15.0 mph - N/A   Clear
10:52 PM 46.9 °F - 28.9 °F 50% 29.90 in 10.0 mi NNW 5.8 mph - N/A   Clear
11:52 PM 46.0 °F 43.1 °F 30.0 °F 54% 29.90 in 10.0 mi NE 5.8 mph - N/A   Clear